Regional Weather Roundup
Issued by NWS Wakefield, VA

Home | Current Version | Previous Version | Text Only | Print | Product List | Glossary On
Versions: 1 2 3 4 5 6 7 8 9 10 11 12 13 14 15 16 17 18 19 20 21 22 23 24 25 26 27
000
ASUS41 KAKQ 191312
RWRAKQ

REGIONAL WEATHER ROUNDUP
NATIONAL WEATHER SERVICE WAKEFIELD VA
800 AM EST SUN NOV 19 2017

Note: "fair" indicates few or no clouds below 12,000 feet with no
significant weather and/or obstructions to visibility. * = Denotes
station may not report precipitation (e.g., rain,snow,etc.),
thunder or fog.

VAZ042-051-052>054-056-191400-
NORTHERN VIRGINIA

CITY           SKY/WX    TMP DP  RH WIND       PRES   REMARKS
WASH NATIONAL  MOSUNNY   49  32  52 W23G37    29.63R
DULLES         PTCLDY    46  33  60 NW21G35   29.64R
FORT BELVOIR   SUNNY     49  30  48 NW14G33   29.63R
QUANTICO       NOT AVBL
FREDERICKSBRG* SUNNY     53  33  47 NW13G23   29.65R
STAFFORD*      SUNNY     49  31  49 NW20G31   29.69R
WARRENTON      NOT AVBL
CULPEPER*      CLEAR     51  29  42 W12G18    29.67R
MANASSAS*      CLEAR     48  32  53 NW17G26   29.65R
LEESBURG*      CLOUDY    46  34  61 NW23G31   29.65R
WINCHESTER     CLOUDY    43  32  65 W25       29.67R
FRONT ROYAL*   CLOUDY    45  30  57 MISG      29.66R
LURAY*         CLOUDY    45  32  61 W8        29.68R
$$

VAZ048-049-060>072-079>083-191400-
CENTRAL AND SOUTH CENTRAL VIRGINIA

CITY           SKY/WX    TMP DP  RH WIND       PRES   REMARKS
RICHMOND       MOSUNNY   57  34  41 NW23G36   29.64R
CHESTERFIELD*  NOT AVBL
PETERSBURG*    NOT AVBL
HANOVER        SUNNY     53  32  44 W18G26    29.66R
TAPPAHANNOCK*    N/A    N/A N/A N/A MISG        N/A
QUINTON*       FAIR      55  37  49 NW12G18   29.62R
CHARLOTTSVILLE CLEAR     50  28  42 NW14G24   29.68R
GORDONSVILLE*  SUNNY     49  30  47 NW10G22   29.67R
ORANGE*        PTCLDY    48  32  53 W7        29.67R
LOUISA*          N/A     50  30  46 W8          N/A
BUMPASS*       FAIR      51  30  43 W9        29.66R
FARMVILLE*     CLEAR     52  35  52 CALM      29.69R
CREWE*         FAIR      52  35  52 NW14G21   29.67R
FORT PICKETT*  NOT AVBL
CHASE CITY*    FAIR      51  34  53 W8G20     29.71R
CLARKSVILLE*   FAIR      50  34  53 NW13G20   29.72R
SOUTH HILL*    SUNNY     51  39  64 W8        29.74R
LAWRENCEVILLE* FAIR      52  38  58 NW8       29.67R
EMPORIA*       SUNNY     52  37  58 W6G17     29.68R
$$

VAZ088>098-191400-
SOUTHEAST VIRGINIA

CITY           SKY/WX    TMP DP  RH WIND       PRES   REMARKS
NORFOLK        CLOUDY    62  54  74 W14G21    29.58R
VIRGINIA BEACH CLOUDY    61  53  75 W15G26    29.56R
NORFOLK NAVAL  PTSUNNY   60  53  77 W16G26    29.60R
WEST POINT*    SUNNY     57  36  45 W13G21    29.62R
SALUDA*        FAIR      57  39  51 NW15G32   29.58R
NEWPORT NEWS   CLOUDY    58  50  75 W15G22    29.59R
LANGLEY AFB    CLOUDY    58  53  83 W12G23    29.58R
FORT EUSTIS    MOSUNNY   57  49  75 NW17      29.57R
WILLIAMSBURG*  MOSUNNY   57  45  62 NW24G31   29.61R
HR EXEC AP*    NOT AVBL
FRANKLIN*      MOSUNNY   55  44  65 W12G22    29.64R
US460-WAKEFLD  SUNNY     55  43  63 W9        29.63R
$$

VAZ020-022-025-037-045-191400-
WEST CENTRAL AND SOUTHWEST VIRGINIA

CITY           SKY/WX    TMP DP  RH WIND       PRES   REMARKS
STAUNTON*      MOCLDY    42  29  58 NW8       29.72R
WAYNESBORO*    CLOUDY    43  29  57 NW9G16    29.71R
HOT SPRINGS VA CLOUDY    32  28  86 W24G31    29.67R WCI  19
LYNCHBURG      CLEAR     47  29  49 VRB5      29.72R
DANVILLE       CLEAR     48  36  63 W6        29.77R
SOUTH BOSTON*  FAIR      51  32  49 NW13G29   29.74R
MARTINSVILLE   CLEAR     45  31  57 N10       29.82R
ROANOKE        MOCLDY    44  31  60 NW15      29.79R
BLACKSBURG     MOCLDY    38  34  84 W9        29.81R
DUBLIN*        MOCLDY    40  33  77 W17G24    29.81R
MARION*        LGT SNOW  37  32  82 W17G25    29.84R
HILLSVILLE*    PTCLDY    36  31  81 NW16G26   29.76R
RICHLANDS*     LGT SNOW  33  32  96 W7        29.87R
WISE*          LGT SNOW  34  34 100 NW7       29.90R
ABINGDON*      RAIN      38  35  89 NW6       29.90R
$$

MDZ021>025-VAZ099-100-191400-
SOUTHERN MARYLAND AND THE DELMARVA PENINSULA

CITY           SKY/WX    TMP DP  RH WIND       PRES   REMARKS
PATUXENT RIVER NOT AVBL
BAY BRIDGE APT MOSUNNY   50  34  53 NW29G37   29.57R
LEONARDTOWN    SUNNY     52  34  50 W15G23    29.61R
DOVER          SUNNY     50  37  62 W18G35    29.50R
GEORGETOWN     PTSUNNY   53  38  56 NW23G37   29.53R
EASTON         MOSUNNY   50  36  57 NW17G29   29.60R
CAMBRIDGE      SUNNY     52  34  50 NW21G41   29.57R
SALISBURY      CLOUDY    53  38  56 W25G45    29.54R
OCEAN CITY     CLOUDY    54  46  74 NW15G24   29.51R
WALLOPS ISLAND LGT RAIN  58  46  64 NW24G38   29.54R
ACCOMACK*      CLOUDY    60  55  83 NW21G30   29.55R
$$

NCZ012>017-030>032-191400-
NORTH CENTRAL AND EASTERN NORTH CAROLINA

CITY           SKY/WX    TMP DP  RH WIND       PRES   REMARKS
ROANOKE RAPIDS   N/A    N/A N/A N/A MISG        N/A
RALEIGH        MOSUNNY   51  36  56 NW9G16    29.75R
ELIZABETH CITY CLOUDY    61  59  93 W15       29.60R
AHOSKIE*       CLOUDY    55  42  60 W5G16     29.66R
EDENTON*       CLOUDY    62  58  88 W9        29.62R
CURRITUCK*     CLOUDY    60  57  91 SW12      29.59R
KILL DEVIL HLS LGT RAIN  61  58  90 SW10G18   29.58R
MANTEO         LGT RAIN  62  58  87 W16       29.61R
CAPE HATTERAS  LGT RAIN  67  61  81 SW26G40   29.64R
TARBORO*       NOT AVBL
GOLDSBORO      CLOUDY    59  46  63 NW15G30   29.70R
WASHINGTON     CLOUDY    59  56  88 W8        29.66R
GREENVILLE     CLOUDY    59  55  88 W6        29.70R
NEW BERN       CLOUDY    63  60  90 SW10G18   29.67R
WILMINGTON     CLOUDY    63  60  90 SW13      29.71R
$$

VAZ048-191400-
ELSEWHERE

CITY           SKY/WX    TMP DP  RH WIND       PRES   REMARKS
HARRISBURG PA  MOCLDY    46  36  68 W24G35    29.52R
BALTIMORE      MOSUNNY   47  33  58 W17G33    29.59R
ANNAPOLIS      NOT AVBL
ANDREWS AFB    MOSUNNY   48  31  53 NW18G31   29.61R
PHILADELPHIA   PTSUNNY   50  34  54 W26G40    29.45R
HENDERSON NC   MOSUNNY   48  34  58 W6        29.71R
GREENSBORO     PTCLDY    48  33  56 NW12      29.79R
ROCKY MOUNT    PTSUNNY   55  42  61 NW16G24   29.71R
$$

VAZ100-191400-
MARINE

STATION/POSITION TIME  TEMP    WIND        PRES    WAVE   SWELL
                       AIR SEA DIR/SP/G            HT/PER HT/PER
                 (UTC) (F)     (DEG/KT/KT) (MB)    (FT/S) (FT/S)
15NM E FENWICK I 1150   60 59  210/ 25/ 33  995.5    9/ 7
THOMAS POINT MD  1300   49 54  290/ 20/ 22   N/A
CAPE HENRY BUOY  1230      59                N/A     5/ 6
CAPE CHARLES BUO 1251      58                N/A     5/ 6
64NM E OF VA BCH 1250   63 62  240/ 25/ 29 1000.5R   8/ 6
44100 DUCK FRF   1145      60                N/A     5/ 8
44056 DUCK FRF   1300      62                N/A     3/ 4
DIAMOND SHLS NC  1250   70 65  240/ 31/ 39 1004.2R  11/ 8
$$




USA.gov is the U.S. government's official web portal to all federal, state and local government web resources and services.